Location: Cedar Springs
(43.2230°N, 85.5510°W)
Time: 07:38:16
(UTC-04:00)

Cosmos 2278 Rocket - Visible Passes

Search period start: 01 July 2016 00:00
Search period end: 11 July 2016 00:00
Orbit: 839 x 847 km, 71.0° (Epoch: 30 June)

Date Brightness Start Highest point End Pass type
(mag) Time Alt. Az. Time Alt. Az. Time Alt. Az.
01 Jul 4.2 02:36:48 13° ESE 02:38:58 16° E 02:42:14 10° ENE visible
01 Jul 2.2 04:18:39 23° SSW 04:22:20 76° WNW 04:28:02 10° NNE visible
02 Jul 4.2 02:22:42 13° ESE 02:24:28 15° E 02:27:33 10° ENE visible
02 Jul 2.2 04:04:33 27° SSW 04:07:48 79° WNW 04:13:31 10° NNE visible
03 Jul 4.2 02:08:35 13° ESE 02:09:59 14° E 02:12:52 10° ENE visible
03 Jul 2.2 03:50:26 31° SSW 03:53:16 82° WNW 03:58:59 10° NNE visible
04 Jul 4.2 01:54:26 13° ESE 01:55:28 14° E 01:58:09 10° ENE visible
04 Jul 2.2 03:36:16 36° SSW 03:38:44 85° WNW 03:44:27 10° NNE visible
04 Jul 4.2 05:20:16 10° W 05:23:42 16° NW 05:27:10 10° N visible
05 Jul 4.3 01:40:14 13° ESE 01:40:59 13° E 01:43:25 10° ENE visible
05 Jul 2.1 03:22:05 41° SSW 03:24:12 88° WNW 03:29:55 10° NNE visible
05 Jul 4.2 05:05:35 10° W 05:09:08 17° NW 05:12:41 10° N visible
06 Jul 4.3 01:26:01 12° E 01:26:29 12° E 01:28:39 10° ENE visible
06 Jul 2.1 03:07:51 46° SSW 03:09:39 89° ESE 03:15:23 10° NNE visible
06 Jul 4.2 04:50:54 10° W 04:54:33 17° NW 04:58:14 10° N visible
07 Jul 4.3 01:11:46 12° E 01:11:59 12° E 01:13:51 10° ENE visible
07 Jul 2.1 02:53:36 51° SSW 02:55:08 85° ESE 03:00:51 10° NNE visible
07 Jul 4.2 04:36:13 10° W 04:39:59 18° NW 04:43:46 10° N visible
08 Jul 4.4 00:57:29 11° E 00:57:29 11° E 00:58:57 10° E visible
08 Jul 2.1 02:39:19 56° S 02:40:36 82° ESE 02:46:19 10° NNE visible
08 Jul 4.2 04:21:33 10° W 04:25:25 18° NW 04:29:18 10° N visible
09 Jul 4.4 00:43:10 10° E 00:43:10 10° E 00:43:53 10° E visible
09 Jul 2.1 02:25:00 59° S 02:26:04 79° ESE 02:31:46 10° NNE visible
09 Jul 4.1 04:06:52 10° W 04:10:50 19° NW 04:14:50 10° N visible
10 Jul 2.1 02:10:39 62° S 02:11:33 76° ESE 02:17:14 10° NNE visible
10 Jul 4.1 03:52:29 11° W 03:56:16 20° NW 04:00:21 10° N visible
